Weather History for Jonesboro, AR

Change the Weather History Date:

Saturday, March 30, 2013

  Actual Average Record
Temperature  
Mean Temperature 50 °F 55 °F  
Max Temperature 57 °F 65 °F 84 °F (1963)
Min Temperature 43 °F 44 °F 23 °F (1964)
Degree Days  
Heating Degree Days 15 11  
Month to date heating degree days 606 454  
Since 1 July heating degree days 3234 3410  
Cooling Degree Days 0 0  
Month to date cooling degree days 0 0  
Year to date cooling degree days 0 0  
Moisture  
Dew Point 47 °F    
Average Humidity 96    
Maximum Humidity 100    
Minimum Humidity 92    
Precipitation  
Precipitation 0.13 in 0.15 in 1.74 in (1990)
Month to date precipitation 1.78 4.34  
Year to date precipitation 11.57 11.49  
Snow  
Snow 0.00 in 0.00 in 3.00 in (1987)
Month to date snowfall 4.0 0.7  
Since 1 July snowfall 11.0 4.8  
Snow Depth 0.00 in    
Sea Level Pressure  
Sea Level Pressure 30.10 in    
Wind  
Wind Speed 6 mph (ENE)    
Max Wind Speed 10 mph    
Max Gust Speed 14 mph    
Visibility 4 miles    
Events Fog , Rain    
T = Trace of Precipitation, MM = Missing Value Source: NWS Daily Summary

Daily Weather History Graph

Daily Weather History Graph

Search for Another Location

Airport:

Trip Planner

Search our weather history database for the weather conditions in past years. The results will help you decide how hot, cold, wet, or windy it might be!

Date:

Astronomy

Mar. 30, 2013 Rise Set
Actual Time 6:51 AM CDT 7:22 PM CDT
Civil Twilight 6:25 AM CDT 7:48 PM CDT
Nautical Twilight 5:55 AM CDT 8:18 PM CDT
Astronomical Twilight 5:24 AM CDT 8:49 PM CDT
Moon 11:21 PM CDT (3/30) 8:54 AM CDT (3/30)
Length of Visible Light 13h 22m
Length of Day
12h 31m
Waning Gibbous, 86% of the Moon is Illuminated
Mar 30
Waning Gibbous
Apr 2
Last Quarter
Apr 10
New
Apr 18
First Quarter
Apr 25
Full

Hourly Weather History & Observations

Time (CDT) Temp. Windchill Dew Point Humidity Pressure Visibility Wind Dir Wind Speed Gust Speed Precip Events Conditions
12:53 AM 44.1 °F - 43.0 °F 96% 30.20 in 0.2 mi Calm Calm - N/A Fog Fog
1:19 AM 44.6 °F 43.1 °F 44.6 °F 100% 30.19 in 0.5 mi NNE 3.5 mph - N/A Fog Fog
1:33 AM 44.6 °F 43.1 °F 42.8 °F 93% 30.19 in 1.0 mi NE 3.5 mph - N/A   Mist
1:41 AM 42.8 °F 40.1 °F 42.8 °F 100% 30.18 in 1.2 mi NNE 4.6 mph - N/A   Clear
1:53 AM 45.0 °F 41.2 °F 44.1 °F 97% 30.17 in 3.0 mi NE 6.9 mph - N/A   Clear
2:53 AM 46.0 °F 42.5 °F 45.0 °F 96% 30.15 in 2.5 mi NE 6.9 mph - N/A   Clear
3:12 AM 44.6 °F 43.1 °F 44.6 °F 100% 30.15 in 3.0 mi ENE 3.5 mph - N/A   Clear
3:28 AM 46.4 °F 44.3 °F 44.6 °F 93% 30.15 in 2.5 mi ENE 4.6 mph - N/A   Clear
3:53 AM 46.0 °F 42.5 °F 45.0 °F 96% 30.15 in 1.2 mi ENE 6.9 mph - N/A   Mostly Cloudy
3:56 AM 46.4 °F 42.9 °F 46.4 °F 100% 30.15 in 0.5 mi ENE 6.9 mph - N/A Fog Fog
4:05 AM 46.4 °F 42.4 °F 44.6 °F 93% 30.15 in 0.2 mi ENE 8.1 mph - N/A Fog Fog
4:53 AM 45.0 °F 40.6 °F 44.1 °F 97% 30.13 in 0.2 mi ENE 8.1 mph - N/A Fog Fog
5:14 AM 44.6 °F 41.4 °F 44.6 °F 100% 30.14 in 0.5 mi ENE 5.8 mph - N/A Fog Fog
5:53 AM 45.0 °F 41.2 °F 44.1 °F 97% 30.14 in 0.8 mi ENE 6.9 mph - N/A   Mist
6:10 AM 44.6 °F 40.2 °F 44.6 °F 100% 30.15 in 1.2 mi ENE 8.1 mph - N/A   Overcast
6:23 AM 44.6 °F 40.7 °F 44.6 °F 100% 30.15 in 2.5 mi ENE 6.9 mph - N/A   Overcast
6:39 AM 44.6 °F 40.2 °F 44.6 °F 100% 30.14 in 1.5 mi ENE 8.1 mph - N/A   Overcast
6:53 AM 44.1 °F 41.5 °F 44.1 °F 100% 30.14 in 1.5 mi ENE 4.6 mph - N/A   Overcast
7:14 AM 44.6 °F 41.4 °F 44.6 °F 100% 30.14 in 0.8 mi ENE 5.8 mph - N/A   Mist
7:28 AM 44.6 °F 40.2 °F 42.8 °F 93% 30.14 in 1.0 mi ENE 8.1 mph - N/A   Overcast
7:53 AM 45.0 °F 41.2 °F 44.1 °F 97% 30.14 in 1.8 mi ENE 6.9 mph - N/A   Overcast
8:08 AM 44.6 °F 40.2 °F 44.6 °F 100% 30.15 in 2.0 mi ENE 8.1 mph - N/A   Overcast
8:21 AM 44.6 °F 40.7 °F 44.6 °F 100% 30.15 in 3.0 mi ENE 6.9 mph - N/A   Overcast
8:53 AM 45.0 °F 40.6 °F 45.0 °F 100% 30.14 in 4.0 mi NE 8.1 mph - N/A   Overcast
9:53 AM 46.9 °F - 46.0 °F 97% 30.13 in 5.0 mi ENE 6.9 mph - N/A   Overcast
10:07 AM 46.4 °F 45.2 °F 46.4 °F 100% 30.13 in 5.0 mi East 3.5 mph - N/A   Overcast
10:46 AM 48.2 °F - 46.4 °F 93% 30.12 in 6.0 mi ENE 5.8 mph - N/A   Mostly Cloudy
10:53 AM 48.9 °F - 46.0 °F 90% 30.12 in 6.0 mi East 4.6 mph - N/A   Overcast
11:44 AM 50.0 °F - 46.4 °F 87% 30.10 in 6.0 mi ENE 6.9 mph - 0.00 in Rain Light Rain
11:53 AM 50.0 °F - 48.0 °F 93% 30.11 in 5.0 mi East 6.9 mph - 0.00 in Rain Light Rain
12:11 PM 50.0 °F - 48.2 °F 94% 30.11 in 3.0 mi East 5.8 mph - 0.02 in Rain Light Rain
12:34 PM 50.0 °F - 48.2 °F 94% 30.10 in 3.0 mi East 4.6 mph - 0.05 in Rain Light Rain
12:53 PM 50.0 °F - 48.0 °F 93% 30.09 in 3.0 mi ENE 5.8 mph - 0.07 in Rain Light Rain
1:53 PM 51.1 °F - 50.0 °F 96% 30.05 in 4.0 mi East 5.8 mph - 0.04 in Rain Light Rain
2:53 PM 53.1 °F - 51.1 °F 93% 30.01 in 7.0 mi ESE 6.9 mph - 0.01 in   Overcast
3:53 PM 55.0 °F - 53.1 °F 93% 29.98 in 9.0 mi SE 8.1 mph - 0.00 in   Overcast
4:53 PM 55.9 °F - 53.1 °F 90% 29.96 in 7.0 mi SE 6.9 mph - N/A   Overcast
5:53 PM 55.9 °F - 54.0 °F 93% 29.95 in 6.0 mi SSE 3.5 mph - N/A   Overcast
6:53 PM 55.9 °F - 54.0 °F 93% 29.95 in 9.0 mi South 4.6 mph - N/A   Overcast
7:53 PM 55.9 °F - 54.0 °F 93% 29.95 in 10.0 mi WSW 4.6 mph - N/A   Overcast
8:53 PM 55.9 °F - 54.0 °F 93% 29.96 in 5.0 mi West 3.5 mph - N/A   Overcast
9:53 PM 55.9 °F - 54.0 °F 93% 29.96 in 10.0 mi West 5.8 mph - 0.01 in   Overcast
10:46 PM 55.4 °F - 53.6 °F 94% 29.95 in 7.0 mi SW 4.6 mph - N/A   Overcast
10:53 PM 55.9 °F - 54.0 °F 93% 29.96 in 7.0 mi WSW 5.8 mph - N/A   Overcast
11:53 PM 55.9 °F - 54.0 °F 93% 29.95 in 8.0 mi SW 6.9 mph - N/A   Overcast